Location: ??????????
(54.4061°N, 22.6114°E)
Time: 21:46:09
(UTC+00:00)

Cosmos 2061 Rocket - Pass Details

Date: 23 October 2019
Orbit: 965 x 1013 km, 82.9° (Epoch: 16 November)

Event Time Altitude Azimuth Distance (km) Brightness Sun altitude
Rises 17:49:10 0° 347° (NNW) 3,696 7.4 -23.1°
Reaches altitude 10° 17:51:42 10° 346° (NNW) 2,738 6.7 -23.5°
Maximum altitude 17:57:55 70° 264° (W) 1,032 4.2 -24.3°
Drops below altitude 10° 18:04:03 10° 182° (S) 2,700 6.2 -25.2°
Enters shadow 18:06:01 - 181° (S) 3,441 6.7 -25.5°
